Tracking 18980 objects as of 17-Feb-2018
HD Live streaming from Space Station
objects crossing your sky now

FENGYUN 1C DEB

Track FENGYUN 1C DEB now!
10-day predictions


NORAD ID: 38722
Int'l Code: 1999-025ETP
Perigee: 655.8 km
Apogee: 1,016.9 km
Inclination: 99.4 °
Period: 101.5 minutes
Semi major axis: 7207 km
RCS: 0.001 m2 (small)
Launch date: May 10, 1999
Source: People's Republic of China (PRC)
Launch site: Taiyaun Space Center, China (TSC)

Note: This is SATELLITE DEBRIS
aabbcc
Your satellite tracking list
Your tracking list is empty




NASA's NSSDC Master Catalog

Two Line Element Set (TLE):
1 38722U 99025ETP 18045.81873487 +.00001062 +00000-0 +39317-3 0  9996
2 38722 099.4002 258.2190 0250478 355.8324 004.0762 14.18858740296812
Source of the keplerian elements: AFSPC